Simultaneous Nadir Overpasses (SNOs) Predictions

Prediction of SNOs between TERRA and METOP-C Satellite Orbit:

Table of predicted SNOs for the next 14.0 days since TLE Epoch: 2/25/2023
Index Date (TERRA) Time (TERRA) Lat,Lon (TERRA) SZA (TERRA ) Date (METOP-C) Time (METOP-C) Lat,Lon (METOP-C) SZA (METOP-C ) Distance(km) Time Diff (sec)
1 02/27/2023 19:01:40 -80.88, 109.06 89.63 02/27/2023 19:00:43 -80.89, 109.07 89.65 0.45 57
2 02/27/2023 19:51:00 80.94, -82.64 90.45 02/27/2023 19:51:20 80.93, -82.72 90.45 1.35 20
3 03/02/2023 11:13:00 -80.90,-133.55 90.60 03/02/2023 11:12:21 -80.90,-133.61 90.62 1.21 39
4 03/02/2023 12:02:20 80.95, 34.70 89.48 03/02/2023 12:02:58 80.94, 34.58 89.48 2.49 38
5 03/05/2023 03:24:19 -80.91, -16.38 91.61 03/05/2023 03:23:58 -80.91, -16.35 91.61 0.60 21
6 03/05/2023 04:13:39 80.95, 151.83 88.47 03/05/2023 04:14:35 80.95, 151.81 88.48 0.31 56
7 03/07/2023 19:35:38 -80.92, 100.90 92.61 03/07/2023 19:35:36 -80.91, 100.84 92.62 1.10 2
8 03/07/2023 20:24:21 81.72, -76.75 89.40 03/07/2023 20:25:34 81.34, -76.08 89.24 44.21 73
9 03/10/2023 10:57:34 80.89, 50.06 86.33 03/10/2023 10:56:33 80.89, 50.17 86.32 1.92 61



Historial Predications of SNOs between TERRA and METOP-C
